Year,Month,Day,Hour,Minute,Value (Times are PST for temperature in C)
2013,07,26,00,00,16.60
2013,07,26,00,01,16.60
2013,07,26,00,02,16.60
2013,07,26,00,03,16.60
2013,07,26,00,04,16.60
2013,07,26,00,05,16.60
2013,07,26,00,06,16.60
2013,07,26,00,07,16.60
2013,07,26,00,08,16.60
2013,07,26,00,09,16.50
2013,07,26,00,10,16.40
2013,07,26,00,11,16.40
2013,07,26,00,12,16.40
2013,07,26,00,13,16.40
2013,07,26,00,14,16.40
2013,07,26,00,15,16.40
2013,07,26,00,16,16.30
2013,07,26,00,17,16.30
2013,07,26,00,18,16.20
2013,07,26,00,19,16.20
2013,07,26,00,20,16.20
2013,07,26,00,21,16.10
2013,07,26,00,22,16.10
2013,07,26,00,23,16.10
2013,07,26,00,24,16.00
2013,07,26,00,25,15.90
2013,07,26,00,26,15.80
2013,07,26,00,27,15.80
2013,07,26,00,28,15.70
2013,07,26,00,29,15.60
2013,07,26,00,30,15.50
2013,07,26,00,31,15.40
2013,07,26,00,32,15.30
2013,07,26,00,33,15.30
2013,07,26,00,34,15.30
2013,07,26,00,35,15.20
2013,07,26,00,36,15.10
2013,07,26,00,37,15.10
2013,07,26,00,38,15.00
2013,07,26,00,39,15.00
2013,07,26,00,40,14.90
2013,07,26,00,41,14.90
2013,07,26,00,42,14.90
2013,07,26,00,43,14.90
2013,07,26,00,44,14.80
2013,07,26,00,45,14.80
2013,07,26,00,46,14.80
2013,07,26,00,47,14.80
2013,07,26,00,48,14.80
2013,07,26,00,49,14.80
2013,07,26,00,50,14.80
2013,07,26,00,51,14.80
2013,07,26,00,52,14.80
2013,07,26,00,53,14.80
2013,07,26,00,54,14.80
2013,07,26,00,55,14.80
2013,07,26,00,56,14.80
2013,07,26,00,57,14.80
2013,07,26,00,58,14.80
2013,07,26,00,59,14.80
2013,07,26,01,00,14.80
2013,07,26,01,01,14.90
2013,07,26,01,02,14.90
2013,07,26,01,03,14.90
2013,07,26,01,04,14.90
2013,07,26,01,05,15.00
2013,07,26,01,06,15.00
2013,07,26,01,07,15.00
2013,07,26,01,08,15.10
2013,07,26,01,09,15.10
2013,07,26,01,10,15.20
2013,07,26,01,11,15.20
2013,07,26,01,12,15.30
2013,07,26,01,13,15.30
2013,07,26,01,14,15.30
2013,07,26,01,15,15.30
2013,07,26,01,16,15.40
2013,07,26,01,17,15.40
2013,07,26,01,18,15.50
2013,07,26,01,19,15.50
2013,07,26,01,20,15.50
2013,07,26,01,21,15.50
2013,07,26,01,22,15.60
2013,07,26,01,23,15.60
2013,07,26,01,24,15.60
2013,07,26,01,25,15.60
2013,07,26,01,26,15.70
2013,07,26,01,27,15.70
2013,07,26,01,28,15.70
2013,07,26,01,29,15.80
2013,07,26,01,30,15.80
2013,07,26,01,31,15.80
2013,07,26,01,32,15.80
2013,07,26,01,33,15.80
2013,07,26,01,34,15.90
2013,07,26,01,35,15.90
2013,07,26,01,36,15.90
2013,07,26,01,37,15.90
2013,07,26,01,38,15.90
2013,07,26,01,39,15.90
2013,07,26,01,40,15.90
2013,07,26,01,41,15.90
2013,07,26,01,42,15.90
2013,07,26,01,43,15.90
2013,07,26,01,44,15.90
2013,07,26,01,45,15.90
2013,07,26,01,46,15.90
2013,07,26,01,47,15.90
2013,07,26,01,48,15.90
2013,07,26,01,49,15.90
2013,07,26,01,50,15.90
2013,07,26,01,51,15.90
2013,07,26,01,52,15.90
2013,07,26,01,53,15.90
2013,07,26,01,54,15.90
2013,07,26,01,55,16.10
2013,07,26,01,56,16.10
2013,07,26,01,57,16.10
2013,07,26,01,58,16.10
2013,07,26,01,59,16.20
2013,07,26,02,00,16.20
2013,07,26,02,01,16.30
2013,07,26,02,02,16.40
2013,07,26,02,03,16.40
2013,07,26,02,04,16.40
2013,07,26,02,05,16.40
2013,07,26,02,06,16.50
2013,07,26,02,07,16.60
2013,07,26,02,08,16.60
2013,07,26,02,09,16.70
2013,07,26,02,10,16.70
2013,07,26,02,11,16.70
2013,07,26,02,12,16.70
2013,07,26,02,13,16.70
2013,07,26,02,14,16.70
2013,07,26,02,15,16.70
2013,07,26,02,16,16.70
2013,07,26,02,17,16.70
2013,07,26,02,18,16.60
2013,07,26,02,19,16.60
2013,07,26,02,20,16.60
2013,07,26,02,21,16.60
2013,07,26,02,22,16.60
2013,07,26,02,23,16.60
2013,07,26,02,24,16.70
2013,07,26,02,25,16.70
2013,07,26,02,26,16.70
2013,07,26,02,27,16.70
2013,07,26,02,28,16.70
2013,07,26,02,29,16.70
2013,07,26,02,30,16.80
2013,07,26,02,31,16.80
2013,07,26,02,32,16.80
2013,07,26,02,33,16.80
2013,07,26,02,34,16.90
2013,07,26,02,35,16.90
2013,07,26,02,36,16.90
2013,07,26,02,37,17.00
2013,07,26,02,38,17.00
2013,07,26,02,39,17.00
2013,07,26,02,40,17.00
2013,07,26,02,41,17.00
2013,07,26,02,42,17.10
2013,07,26,02,43,17.10
2013,07,26,02,44,17.10
2013,07,26,02,45,17.10
2013,07,26,02,46,17.10
2013,07,26,02,47,17.10
2013,07,26,02,48,17.10
2013,07,26,02,49,17.10
2013,07,26,02,50,17.10
2013,07,26,02,51,17.10
2013,07,26,02,52,17.10
2013,07,26,02,53,17.10
2013,07,26,02,54,17.10
2013,07,26,02,55,17.20
2013,07,26,02,56,17.20
2013,07,26,02,57,17.20
2013,07,26,02,58,17.20
2013,07,26,02,59,17.20
2013,07,26,03,00,17.30
2013,07,26,03,01,17.30
2013,07,26,03,02,17.30
2013,07,26,03,03,17.20
2013,07,26,03,04,17.20
2013,07,26,03,05,17.20
2013,07,26,03,06,17.20
2013,07,26,03,07,17.20
2013,07,26,03,08,17.10
2013,07,26,03,09,17.10
2013,07,26,03,10,17.10
2013,07,26,03,11,17.00
2013,07,26,03,12,17.00
2013,07,26,03,13,17.00
2013,07,26,03,14,17.00
2013,07,26,03,15,16.90
2013,07,26,03,16,16.90
2013,07,26,03,17,16.80
2013,07,26,03,18,16.80
2013,07,26,03,19,16.70
2013,07,26,03,20,16.70
2013,07,26,03,21,16.70
2013,07,26,03,22,16.70
2013,07,26,03,23,16.70
2013,07,26,03,24,16.70
2013,07,26,03,25,16.70
2013,07,26,03,26,16.70
2013,07,26,03,27,16.70
2013,07,26,03,28,16.70
2013,07,26,03,29,16.70
2013,07,26,03,30,16.70
2013,07,26,03,31,16.60
2013,07,26,03,32,16.50
2013,07,26,03,33,16.40
2013,07,26,03,34,16.40
2013,07,26,03,35,16.30
2013,07,26,03,36,16.30
2013,07,26,03,37,16.20
2013,07,26,03,38,16.20
2013,07,26,03,39,16.10
2013,07,26,03,40,16.00
2013,07,26,03,41,15.80
2013,07,26,03,42,15.70
2013,07,26,03,43,15.50
2013,07,26,03,44,15.40
2013,07,26,03,45,15.30
2013,07,26,03,46,15.20
2013,07,26,03,47,15.10
2013,07,26,03,48,15.00
2013,07,26,03,49,14.90
2013,07,26,03,50,14.80
2013,07,26,03,51,14.80
2013,07,26,03,52,14.70
2013,07,26,03,53,14.60
2013,07,26,03,54,14.60
2013,07,26,03,55,14.60
2013,07,26,03,56,14.50
2013,07,26,03,57,14.50
2013,07,26,03,58,14.50
2013,07,26,03,59,14.60
2013,07,26,04,00,14.60
2013,07,26,04,01,14.60
2013,07,26,04,02,14.60
2013,07,26,04,03,14.60
2013,07,26,04,04,14.60
2013,07,26,04,05,14.60
2013,07,26,04,06,14.60
2013,07,26,04,07,14.70
2013,07,26,04,08,14.70
2013,07,26,04,09,14.70
2013,07,26,04,10,14.70
2013,07,26,04,11,14.70
2013,07,26,04,12,14.70
2013,07,26,04,13,14.80
2013,07,26,04,14,14.80
2013,07,26,04,15,14.80
2013,07,26,04,16,14.90
2013,07,26,04,17,15.00
2013,07,26,04,18,15.00
2013,07,26,04,19,15.20
2013,07,26,04,20,15.30
2013,07,26,04,21,15.30
2013,07,26,04,22,15.20
2013,07,26,04,23,15.10
2013,07,26,04,24,14.90
2013,07,26,04,25,14.80
2013,07,26,04,26,14.60
2013,07,26,04,27,14.40
2013,07,26,04,28,14.20
2013,07,26,04,29,14.10
2013,07,26,04,30,13.90
2013,07,26,04,31,13.80
2013,07,26,04,32,13.70
2013,07,26,04,33,13.70
2013,07,26,04,34,13.70
2013,07,26,04,35,13.60
2013,07,26,04,36,13.60
2013,07,26,04,37,13.50
2013,07,26,04,38,13.50
2013,07,26,04,39,13.50
2013,07,26,04,40,13.50
2013,07,26,04,41,13.50
2013,07,26,04,42,13.60
2013,07,26,04,43,13.60
2013,07,26,04,44,13.60
2013,07,26,04,45,13.70
2013,07,26,04,46,13.70
2013,07,26,04,47,13.70
2013,07,26,04,48,13.80
2013,07,26,04,49,13.90
2013,07,26,04,50,14.00
2013,07,26,04,51,14.00
2013,07,26,04,52,14.10
2013,07,26,04,53,14.10
2013,07,26,04,54,14.20
2013,07,26,04,55,14.20
2013,07,26,04,56,14.20
2013,07,26,04,57,14.20
2013,07,26,04,58,14.20
2013,07,26,04,59,14.20
2013,07,26,05,00,14.30
2013,07,26,05,01,14.30
2013,07,26,05,02,14.30
2013,07,26,05,03,14.30
2013,07,26,05,04,14.30
2013,07,26,05,05,14.40
2013,07,26,05,06,14.40
2013,07,26,05,07,14.40
2013,07,26,05,08,14.50
2013,07,26,05,09,14.50
2013,07,26,05,10,14.60
2013,07,26,05,11,14.60
2013,07,26,05,12,14.70
2013,07,26,05,13,14.70
2013,07,26,05,14,14.80
2013,07,26,05,15,14.80
2013,07,26,05,16,14.80
2013,07,26,05,17,14.90
2013,07,26,05,18,14.90
2013,07,26,05,19,14.90
2013,07,26,05,20,14.90
2013,07,26,05,21,14.90
2013,07,26,05,22,14.90
2013,07,26,05,23,14.90
2013,07,26,05,24,14.90
2013,07,26,05,25,14.80
2013,07,26,05,26,14.80
2013,07,26,05,27,14.80
2013,07,26,05,28,14.70
2013,07,26,05,29,14.80
2013,07,26,05,30,14.80
2013,07,26,05,31,14.80
2013,07,26,05,32,14.90
2013,07,26,05,33,14.90
2013,07,26,05,34,14.90
2013,07,26,05,35,14.90
2013,07,26,05,36,14.90
2013,07,26,05,37,14.90
2013,07,26,05,38,14.90
2013,07,26,05,39,14.90
2013,07,26,05,40,14.90
2013,07,26,05,41,14.90
2013,07,26,05,42,14.90
2013,07,26,05,43,14.90
2013,07,26,05,44,14.90
2013,07,26,05,45,14.90
2013,07,26,05,46,15.00
2013,07,26,05,47,15.00
2013,07,26,05,48,15.00
2013,07,26,05,49,15.00
2013,07,26,05,50,15.00
2013,07,26,05,51,15.10
2013,07,26,05,52,15.10
2013,07,26,05,53,15.10
2013,07,26,05,54,15.20
2013,07,26,05,55,15.10
2013,07,26,05,56,15.00
2013,07,26,05,57,14.90
2013,07,26,05,58,14.80
2013,07,26,05,59,14.80
2013,07,26,06,00,14.80
2013,07,26,06,01,14.80
2013,07,26,06,02,14.90
2013,07,26,06,03,15.00
2013,07,26,06,04,15.10
2013,07,26,06,05,15.20
2013,07,26,06,06,15.20
2013,07,26,06,07,15.30
2013,07,26,06,08,15.50
2013,07,26,06,09,15.50
2013,07,26,06,10,15.60
2013,07,26,06,11,15.70
2013,07,26,06,12,15.80
2013,07,26,06,13,15.80
2013,07,26,06,14,15.80
2013,07,26,06,15,15.80
2013,07,26,06,16,15.80
2013,07,26,06,17,15.90
2013,07,26,06,18,15.90
2013,07,26,06,19,15.90
2013,07,26,06,20,15.90
2013,07,26,06,21,15.90
2013,07,26,06,22,16.00
2013,07,26,06,23,16.10
2013,07,26,06,24,16.10
2013,07,26,06,25,16.10
2013,07,26,06,26,16.10
2013,07,26,06,27,16.10
2013,07,26,06,28,16.10
2013,07,26,06,29,16.10
2013,07,26,06,30,16.10
2013,07,26,06,31,16.10
2013,07,26,06,32,16.10
2013,07,26,06,33,16.10
2013,07,26,06,34,16.10
2013,07,26,06,35,16.10
2013,07,26,06,36,16.10
2013,07,26,06,37,16.00
2013,07,26,06,38,15.90
2013,07,26,06,39,16.10
2013,07,26,06,40,16.10
2013,07,26,06,41,16.10
2013,07,26,06,42,16.00
2013,07,26,06,43,15.90
2013,07,26,06,44,15.90
2013,07,26,06,45,15.90
2013,07,26,06,46,15.80
2013,07,26,06,47,15.80
2013,07,26,06,48,15.90
2013,07,26,06,49,15.90
2013,07,26,06,50,16.10
2013,07,26,06,51,16.10
2013,07,26,06,52,16.10
2013,07,26,06,53,16.20
2013,07,26,06,54,16.30
2013,07,26,06,55,16.40
2013,07,26,06,56,16.40
2013,07,26,06,57,16.50
2013,07,26,06,58,16.60
2013,07,26,06,59,16.70
2013,07,26,07,00,16.70
2013,07,26,07,01,16.70
2013,07,26,07,02,16.80
2013,07,26,07,03,16.80
2013,07,26,07,04,16.80
2013,07,26,07,05,16.80
2013,07,26,07,06,16.80
2013,07,26,07,07,16.70
2013,07,26,07,08,16.70
2013,07,26,07,09,16.70
2013,07,26,07,10,16.70
2013,07,26,07,11,16.80
2013,07,26,07,12,16.80
2013,07,26,07,13,16.80
2013,07,26,07,14,16.80
2013,07,26,07,15,16.70
2013,07,26,07,16,16.70
2013,07,26,07,17,16.70
2013,07,26,07,18,16.70
2013,07,26,07,19,16.70
2013,07,26,07,20,16.60
2013,07,26,07,21,16.60
2013,07,26,07,22,16.60
2013,07,26,07,23,16.60
2013,07,26,07,24,16.60
2013,07,26,07,25,16.70
2013,07,26,07,26,16.70
2013,07,26,07,27,16.70
2013,07,26,07,28,16.80
2013,07,26,07,29,16.90
2013,07,26,07,30,16.90
2013,07,26,07,31,17.00
2013,07,26,07,32,17.10
2013,07,26,07,33,17.20
2013,07,26,07,34,17.30
2013,07,26,07,35,17.40
2013,07,26,07,36,17.50
2013,07,26,07,37,17.50
2013,07,26,07,38,17.50
2013,07,26,07,39,17.40
2013,07,26,07,40,17.40
2013,07,26,07,41,17.40
2013,07,26,07,42,17.40
2013,07,26,07,43,17.40
2013,07,26,07,44,17.40
2013,07,26,07,45,17.40
2013,07,26,07,46,17.40
2013,07,26,07,47,17.40
2013,07,26,07,48,17.50
2013,07,26,07,49,17.50
2013,07,26,07,50,17.40
2013,07,26,07,51,17.40
2013,07,26,07,52,17.40
2013,07,26,07,53,17.50
2013,07,26,07,54,17.50
2013,07,26,07,55,17.70
2013,07,26,07,56,17.70
2013,07,26,07,57,17.80
2013,07,26,07,58,17.80
2013,07,26,07,59,17.80
2013,07,26,08,00,17.90
2013,07,26,08,01,17.80
2013,07,26,08,02,17.80
2013,07,26,08,03,17.80
2013,07,26,08,04,17.80
2013,07,26,08,05,17.70
2013,07,26,08,06,17.70
2013,07,26,08,07,17.80
2013,07,26,08,08,17.70
2013,07,26,08,09,17.70
2013,07,26,08,10,17.70
2013,07,26,08,11,17.60
2013,07,26,08,12,17.60
2013,07,26,08,13,17.60
2013,07,26,08,14,17.60
2013,07,26,08,15,17.70
2013,07,26,08,16,17.80
2013,07,26,08,17,17.80
2013,07,26,08,18,17.90
2013,07,26,08,19,17.90
2013,07,26,08,20,18.00
2013,07,26,08,21,18.10
2013,07,26,08,22,18.10
2013,07,26,08,23,18.20
2013,07,26,08,24,18.20
2013,07,26,08,25,18.20
2013,07,26,08,26,18.30
2013,07,26,08,27,18.40
2013,07,26,08,28,18.50
2013,07,26,08,29,18.60
2013,07,26,08,30,18.60
2013,07,26,08,31,18.70
2013,07,26,08,32,18.90
2013,07,26,08,33,18.90
2013,07,26,08,34,19.10
2013,07,26,08,35,19.00
2013,07,26,08,36,19.10
2013,07,26,08,37,19.10
2013,07,26,08,38,19.10
2013,07,26,08,39,19.10
2013,07,26,08,40,19.10
2013,07,26,08,41,19.10
2013,07,26,08,42,19.10
2013,07,26,08,43,19.10
2013,07,26,08,44,19.20
2013,07,26,08,45,19.30
2013,07,26,08,46,19.40
2013,07,26,08,47,19.40
2013,07,26,08,48,19.50
2013,07,26,08,49,19.60
2013,07,26,08,50,19.60
2013,07,26,08,51,19.60
2013,07,26,08,52,19.50
2013,07,26,08,53,19.40
2013,07,26,08,54,19.40
2013,07,26,08,55,19.40
2013,07,26,08,56,19.50
2013,07,26,08,57,19.40
2013,07,26,08,58,19.30
2013,07,26,08,59,19.20
2013,07,26,09,00,19.20
2013,07,26,09,01,19.20
2013,07,26,09,02,19.30
2013,07,26,09,03,19.30
2013,07,26,09,04,19.40
2013,07,26,09,05,19.40
2013,07,26,09,06,19.30
2013,07,26,09,07,19.10
2013,07,26,09,08,19.00
2013,07,26,09,09,18.90
2013,07,26,09,10,18.90
2013,07,26,09,11,18.90
2013,07,26,09,12,18.90
2013,07,26,09,13,18.90
2013,07,26,09,14,19.00
2013,07,26,09,15,19.10
2013,07,26,09,16,19.10
2013,07,26,09,17,19.20
2013,07,26,09,18,19.20
2013,07,26,09,19,19.30
2013,07,26,09,20,19.30
2013,07,26,09,21,19.30
2013,07,26,09,22,19.40
2013,07,26,09,23,19.40
2013,07,26,09,24,19.50
2013,07,26,09,25,19.50
2013,07,26,09,26,19.30
2013,07,26,09,27,19.10
2013,07,26,09,28,18.90
2013,07,26,09,29,18.90
2013,07,26,09,30,18.90
2013,07,26,09,31,19.00
2013,07,26,09,32,19.10
2013,07,26,09,33,19.10
2013,07,26,09,34,19.10
2013,07,26,09,35,19.10
2013,07,26,09,36,19.10
2013,07,26,09,37,19.10
2013,07,26,09,38,19.10
2013,07,26,09,39,19.10
2013,07,26,09,40,19.20
2013,07,26,09,41,19.30
2013,07,26,09,42,19.40
2013,07,26,09,43,19.50
2013,07,26,09,44,19.50
2013,07,26,09,45,19.60
2013,07,26,09,46,19.60
2013,07,26,09,47,19.50
2013,07,26,09,48,19.50
2013,07,26,09,49,19.50
2013,07,26,09,50,19.40
2013,07,26,09,51,19.30
2013,07,26,09,52,19.20
2013,07,26,09,53,19.30
2013,07,26,09,54,19.30
2013,07,26,09,55,19.40
2013,07,26,09,56,19.30
2013,07,26,09,57,19.30
2013,07,26,09,58,19.20
2013,07,26,09,59,19.10
2013,07,26,10,00,19.00
2013,07,26,10,01,18.90
2013,07,26,10,02,19.00
2013,07,26,10,03,19.10
2013,07,26,10,04,19.10
2013,07,26,10,05,19.10
2013,07,26,10,06,19.10
2013,07,26,10,07,19.20
2013,07,26,10,08,19.10
2013,07,26,10,09,19.10
2013,07,26,10,10,19.10
2013,07,26,10,11,19.10
2013,07,26,10,12,19.00
2013,07,26,10,13,18.90
2013,07,26,10,14,18.80
2013,07,26,10,15,18.80
2013,07,26,10,16,18.80
2013,07,26,10,17,18.90
2013,07,26,10,18,18.90
2013,07,26,10,19,18.90
2013,07,26,10,20,18.80
2013,07,26,10,21,18.80
2013,07,26,10,22,18.80
2013,07,26,10,23,18.90
2013,07,26,10,24,19.00
2013,07,26,10,25,19.00
2013,07,26,10,26,18.90
2013,07,26,10,27,18.80
2013,07,26,10,28,18.90
2013,07,26,10,29,18.90
2013,07,26,10,30,18.90
2013,07,26,10,31,19.00
2013,07,26,10,32,19.00
2013,07,26,10,33,19.00
2013,07,26,10,34,18.90
2013,07,26,10,35,18.80
2013,07,26,10,36,18.80
2013,07,26,10,37,18.80
2013,07,26,10,38,18.80
2013,07,26,10,39,18.80
2013,07,26,10,40,18.70
2013,07,26,10,41,18.50
2013,07,26,10,42,18.50
2013,07,26,10,43,18.60
2013,07,26,10,44,18.70
2013,07,26,10,45,18.70
2013,07,26,10,46,18.80
2013,07,26,10,47,18.90
2013,07,26,10,48,18.90
2013,07,26,10,49,18.90
2013,07,26,10,50,18.90
2013,07,26,10,51,19.00
2013,07,26,10,52,19.10
2013,07,26,10,53,19.10
2013,07,26,10,54,19.30
2013,07,26,10,55,19.40
2013,07,26,10,56,19.30
2013,07,26,10,57,19.20
2013,07,26,10,58,19.20
2013,07,26,10,59,19.10
2013,07,26,11,00,19.20
2013,07,26,11,01,19.30
2013,07,26,11,02,19.40
2013,07,26,11,03,19.50
2013,07,26,11,04,19.60
2013,07,26,11,05,19.50
2013,07,26,11,06,19.40
2013,07,26,11,07,19.30
2013,07,26,11,08,19.30
2013,07,26,11,09,19.20
2013,07,26,11,10,19.10
2013,07,26,11,11,19.20
2013,07,26,11,12,19.20
2013,07,26,11,13,19.10
2013,07,26,11,14,19.20
2013,07,26,11,15,19.30
2013,07,26,11,16,19.40
2013,07,26,11,17,19.50
2013,07,26,11,18,19.30
2013,07,26,11,19,19.30
2013,07,26,11,20,19.40
2013,07,26,11,21,19.40
2013,07,26,11,22,19.40
2013,07,26,11,23,19.40
2013,07,26,11,24,19.40
2013,07,26,11,25,19.40
2013,07,26,11,26,19.30
2013,07,26,11,27,19.20
2013,07,26,11,28,19.10
2013,07,26,11,29,19.20
2013,07,26,11,30,19.30
2013,07,26,11,31,19.40
2013,07,26,11,32,19.50
2013,07,26,11,33,19.60
2013,07,26,11,34,19.70
2013,07,26,11,35,19.90
2013,07,26,11,36,19.90
2013,07,26,11,37,19.90
2013,07,26,11,38,19.90
2013,07,26,11,39,20.00
2013,07,26,11,40,20.10
2013,07,26,11,41,20.00
2013,07,26,11,42,19.90
2013,07,26,11,43,19.90
2013,07,26,11,44,20.00
2013,07,26,11,45,20.00
2013,07,26,11,46,19.90
2013,07,26,11,47,19.90
2013,07,26,11,48,20.00
2013,07,26,11,49,20.10
2013,07,26,11,50,19.90
2013,07,26,11,51,19.80
2013,07,26,11,52,19.80
2013,07,26,11,53,19.70
2013,07,26,11,54,19.60
2013,07,26,11,55,19.40
2013,07,26,11,56,19.40
2013,07,26,11,57,19.50
2013,07,26,11,58,19.50
2013,07,26,11,59,19.50
2013,07,26,12,00,19.60
2013,07,26,12,01,19.60
2013,07,26,12,02,19.50
2013,07,26,12,03,19.60
2013,07,26,12,04,19.60
2013,07,26,12,05,19.70
2013,07,26,12,06,19.80
2013,07,26,12,07,19.80
2013,07,26,12,08,19.80
2013,07,26,12,09,19.80
2013,07,26,12,10,19.90
2013,07,26,12,11,19.90
2013,07,26,12,12,19.90
2013,07,26,12,13,19.90
2013,07,26,12,14,20.00
2013,07,26,12,15,20.00
2013,07,26,12,16,19.90
2013,07,26,12,17,19.90
2013,07,26,12,18,19.80
2013,07,26,12,19,19.80
2013,07,26,12,20,19.80
2013,07,26,12,21,19.80
2013,07,26,12,22,19.90
2013,07,26,12,23,20.00
2013,07,26,12,24,20.10
2013,07,26,12,25,20.10
2013,07,26,12,26,20.20
2013,07,26,12,27,20.20
2013,07,26,12,28,20.10
2013,07,26,12,29,20.10
2013,07,26,12,30,20.00
2013,07,26,12,31,19.90
2013,07,26,12,32,19.70
2013,07,26,12,33,19.70
2013,07,26,12,34,19.60
2013,07,26,12,35,19.50
2013,07,26,12,36,19.60
2013,07,26,12,37,19.60
2013,07,26,12,38,19.70
2013,07,26,12,39,19.90
2013,07,26,12,40,20.00
2013,07,26,12,41,20.10
2013,07,26,12,42,20.20
2013,07,26,12,43,20.20
2013,07,26,12,44,20.20
2013,07,26,12,45,20.20
2013,07,26,12,46,20.10
2013,07,26,12,47,20.20
2013,07,26,12,48,20.20
2013,07,26,12,49,20.30
2013,07,26,12,50,20.20
2013,07,26,12,51,20.20
2013,07,26,12,52,20.10
2013,07,26,12,53,20.00
2013,07,26,12,54,19.90
2013,07,26,12,55,19.90
2013,07,26,12,56,19.90
2013,07,26,12,57,19.90
2013,07,26,12,58,20.10
2013,07,26,12,59,20.10
2013,07,26,13,00,20.20
2013,07,26,13,01,20.30
2013,07,26,13,02,20.40
2013,07,26,13,03,20.50
2013,07,26,13,04,20.60
2013,07,26,13,05,20.80
2013,07,26,13,06,20.90
2013,07,26,13,07,20.90
2013,07,26,13,08,20.90
2013,07,26,13,09,21.00
2013,07,26,13,10,21.10
2013,07,26,13,11,21.20
2013,07,26,13,12,21.30
2013,07,26,13,13,21.30
2013,07,26,13,14,21.30
2013,07,26,13,15,21.30
2013,07,26,13,16,21.30
2013,07,26,13,17,21.30
2013,07,26,13,18,21.30
2013,07,26,13,19,21.30
2013,07,26,13,20,21.20
2013,07,26,13,21,21.20
2013,07,26,13,22,21.30
2013,07,26,13,23,21.40
2013,07,26,13,24,21.40
2013,07,26,13,25,21.40
2013,07,26,13,26,21.30
2013,07,26,13,27,21.30
2013,07,26,13,28,21.20
2013,07,26,13,29,21.00
2013,07,26,13,30,20.80
2013,07,26,13,31,20.70
2013,07,26,13,32,20.60
2013,07,26,13,33,20.60
2013,07,26,13,34,20.70
2013,07,26,13,35,20.70
2013,07,26,13,36,20.80
2013,07,26,13,37,20.80
2013,07,26,13,38,20.90
2013,07,26,13,39,20.90
2013,07,26,13,40,21.00
2013,07,26,13,41,20.90
2013,07,26,13,42,20.80
2013,07,26,13,43,20.70
2013,07,26,13,44,20.60
2013,07,26,13,45,20.60
2013,07,26,13,46,20.50
2013,07,26,13,47,20.40
2013,07,26,13,48,20.30
2013,07,26,13,49,20.20
2013,07,26,13,50,20.30
2013,07,26,13,51,20.30
2013,07,26,13,52,20.20
2013,07,26,13,53,20.20
2013,07,26,13,54,20.10
2013,07,26,13,55,20.00
2013,07,26,13,56,20.10
2013,07,26,13,57,20.10
2013,07,26,13,58,20.10
2013,07,26,13,59,20.00
2013,07,26,14,00,19.90
2013,07,26,14,01,20.00
2013,07,26,14,02,20.10
2013,07,26,14,03,20.20
2013,07,26,14,04,20.20
2013,07,26,14,05,20.30
2013,07,26,14,06,20.20
2013,07,26,14,07,20.20
2013,07,26,14,08,20.30
2013,07,26,14,09,20.40
2013,07,26,14,10,20.40
2013,07,26,14,11,20.30
2013,07,26,14,12,20.20
2013,07,26,14,13,20.20
2013,07,26,14,14,20.00
2013,07,26,14,15,19.90
2013,07,26,14,16,19.90
2013,07,26,14,17,19.70
2013,07,26,14,18,19.50
2013,07,26,14,19,19.50
2013,07,26,14,20,19.50
2013,07,26,14,21,19.60
2013,07,26,14,22,19.60
2013,07,26,14,23,19.70
2013,07,26,14,24,19.70
2013,07,26,14,25,19.60
2013,07,26,14,26,19.50
2013,07,26,14,27,19.50
2013,07,26,14,28,19.60
2013,07,26,14,29,19.70
2013,07,26,14,30,19.70
2013,07,26,14,31,19.60
2013,07,26,14,32,19.60
2013,07,26,14,33,19.60
2013,07,26,14,34,19.70
2013,07,26,14,35,19.60
2013,07,26,14,36,19.60
2013,07,26,14,37,19.70
2013,07,26,14,38,19.80
2013,07,26,14,39,19.90
2013,07,26,14,40,20.00
2013,07,26,14,41,20.10
2013,07,26,14,42,20.20
2013,07,26,14,43,20.20
2013,07,26,14,44,20.30
2013,07,26,14,45,20.40
2013,07,26,14,46,20.50
2013,07,26,14,47,20.70
2013,07,26,14,48,20.80
2013,07,26,14,49,20.90
2013,07,26,14,50,20.90
2013,07,26,14,51,20.90
2013,07,26,14,52,21.00
2013,07,26,14,53,21.00
2013,07,26,14,54,21.00
2013,07,26,14,55,20.90
2013,07,26,14,56,20.90
2013,07,26,14,57,20.80
2013,07,26,14,58,20.70
2013,07,26,14,59,20.70
2013,07,26,15,00,20.60
2013,07,26,15,01,20.50
2013,07,26,15,02,20.50
2013,07,26,15,03,20.50
2013,07,26,15,04,20.60
2013,07,26,15,05,20.70
2013,07,26,15,06,20.80
2013,07,26,15,07,20.90
2013,07,26,15,08,21.00
2013,07,26,15,09,21.10
2013,07,26,15,10,21.20
2013,07,26,15,11,21.20
2013,07,26,15,12,21.30
2013,07,26,15,13,21.30
2013,07,26,15,14,21.30
2013,07,26,15,15,21.30
2013,07,26,15,16,21.20
2013,07,26,15,17,21.00
2013,07,26,15,18,20.90
2013,07,26,15,19,20.80
2013,07,26,15,20,20.80
2013,07,26,15,21,20.90
2013,07,26,15,22,20.90
2013,07,26,15,23,21.00
2013,07,26,15,24,21.00
2013,07,26,15,25,21.10
2013,07,26,15,26,21.20
2013,07,26,15,27,21.30
2013,07,26,15,28,21.40
2013,07,26,15,29,21.60
2013,07,26,15,30,21.80
2013,07,26,15,31,21.90
2013,07,26,15,32,22.10
2013,07,26,15,33,22.20
2013,07,26,15,34,22.30
2013,07,26,15,35,22.40
2013,07,26,15,36,22.50
2013,07,26,15,37,22.60
2013,07,26,15,38,22.70
2013,07,26,15,39,22.80
2013,07,26,15,40,22.70
2013,07,26,15,41,22.60
2013,07,26,15,42,22.50
2013,07,26,15,43,22.30
2013,07,26,15,44,22.10
2013,07,26,15,45,21.80
2013,07,26,15,46,21.50
2013,07,26,15,47,21.30
2013,07,26,15,48,21.30
2013,07,26,15,49,21.30
2013,07,26,15,50,21.30
2013,07,26,15,51,21.40
2013,07,26,15,52,21.40
2013,07,26,15,53,21.50
2013,07,26,15,54,21.60
2013,07,26,15,55,21.60
2013,07,26,15,56,21.60
2013,07,26,15,57,21.60
2013,07,26,15,58,21.60
2013,07,26,15,59,21.60
2013,07,26,16,00,21.70
2013,07,26,16,01,21.70
2013,07,26,16,02,21.70
2013,07,26,16,03,21.50
2013,07,26,16,04,21.30
2013,07,26,16,05,21.20
2013,07,26,16,06,21.20
2013,07,26,16,07,21.20
2013,07,26,16,08,21.30
2013,07,26,16,09,21.30
2013,07,26,16,10,21.40
2013,07,26,16,11,21.50
2013,07,26,16,12,21.60
2013,07,26,16,13,21.80
2013,07,26,16,14,21.90
2013,07,26,16,15,22.00
2013,07,26,16,16,22.10
2013,07,26,16,17,22.10
2013,07,26,16,18,22.20
2013,07,26,16,19,22.40
2013,07,26,16,20,22.50
2013,07,26,16,21,22.50
2013,07,26,16,22,22.40
2013,07,26,16,23,22.40
2013,07,26,16,24,22.40
2013,07,26,16,25,22.40
2013,07,26,16,26,22.40
2013,07,26,16,27,22.40
2013,07,26,16,28,22.30
2013,07,26,16,29,22.10
2013,07,26,16,30,22.00
2013,07,26,16,31,22.00
2013,07,26,16,32,22.00
2013,07,26,16,33,21.90
2013,07,26,16,34,21.80
2013,07,26,16,35,21.60
2013,07,26,16,36,21.40
2013,07,26,16,37,21.20
2013,07,26,16,38,21.00
2013,07,26,16,39,20.70
2013,07,26,16,40,20.50
2013,07,26,16,41,20.30
2013,07,26,16,42,20.20
2013,07,26,16,43,20.20
2013,07,26,16,44,20.10
2013,07,26,16,45,20.00
2013,07,26,16,46,19.80
2013,07,26,16,47,19.70
2013,07,26,16,48,19.70
2013,07,26,16,49,19.70
2013,07,26,16,50,19.70
2013,07,26,16,51,19.70
2013,07,26,16,52,19.70
2013,07,26,16,53,19.70
2013,07,26,16,54,19.80
2013,07,26,16,55,19.80
2013,07,26,16,56,19.90
2013,07,26,16,57,19.90
2013,07,26,16,58,19.90
2013,07,26,16,59,19.70
2013,07,26,17,00,19.70
2013,07,26,17,01,19.50
2013,07,26,17,02,19.40
2013,07,26,17,03,19.40
2013,07,26,17,04,19.40
2013,07,26,17,05,19.50
2013,07,26,17,06,19.60
2013,07,26,17,07,19.70
2013,07,26,17,08,19.80
2013,07,26,17,09,19.80
2013,07,26,17,10,19.90
2013,07,26,17,11,20.00
2013,07,26,17,12,20.20
2013,07,26,17,13,20.30
2013,07,26,17,14,20.40
2013,07,26,17,15,20.40
2013,07,26,17,16,20.40
2013,07,26,17,17,20.50
2013,07,26,17,18,20.50
2013,07,26,17,19,20.50